Погода в Баболе

Иран     36°32′53″N   52°40′27″E
темп.,
°C
ветер,
м/с
пор.,
м/с
влажн.,
%
обл.,
%
осадки,
мм/ч
давл.,
гПа
погр.,
м
21 апреля, ср
ср2101:30+23з113067 0.0 101013
04:30+20в1145100 0.0 101012
07:30+23в2231100 0.0 101016
10:30+28зсз44315 0.0 1012496
13:30+30сз44271 0.0 1012780
16:30+29зсз44315 0.0 1012535
19:30+25ссв01406 0.0 101112
22:30+20з465712 0.0 1013143
22 апреля, чт
чт2201:30+18юз36675 0.0 1017266
04:30+19ююв345739 0.0 101672
07:30+17з511779 0.0 1018399
10:30+21зсз556299 0.0 1019764
13:30+22зсз5556100 0.0 1018778
16:30+22зсз2253100 0.0 1017479
19:30+18зсз567097 0.0 1017376
22:30+17зсз4575100 0.0 1018205
23 апреля, пт
пт2301:30+15зюз3587100 0.0 1017195
04:30+15юз2386100 0.0 1017145
07:30+16з1281100 0.0 1016195
10:30+21зсз2261100 0.0 1016729
13:30+23сз645354 0.0 10161018
16:30+19зсз6664100 0.0 1019843
19:30+17з4575100 0.0 1021619
22:30+15зюз5883100 0.0 1023420
24 апреля, сб
сб2401:30+15ююз347791 0.0 1023433
04:30+14зюз358588 0.0 1022355
07:30+14юз2278100 0.0 1022332
10:30+18сз216559 0.0 1021832
13:30+22ссз4352100 0.0 10181280
16:30+20с5456100 0.0 1018757
19:30+17ссв236698 0.0 1019198
22:30+16ссв127278 0.0 1021153
25 апреля, вс
вс2501:30+15з1278100 0.0 1021131
04:30+14ююз1184100 0.0 102161
07:30+15юв007987 0.0 1021203
10:30+20ссв12580 0.0 1020816
13:30+25с43441 0.0 10171215
16:30+22ссв4351100 0.0 1016542
19:30+20с355960 0.0 1014210
22:30+17с017316 0.0 101446